Wind_Speed
9 8 7 6 5 4 4 4 4 3 3 3 2 2 2 2 2 3 3 5 6 8 9 10 12 13 14 15 17 18 18 19 20 20 21 22 22 23 24 24 25 25 26 27 27 28 28 29 29
10 9 7 7 6 6 5 4 4 4 3 2 1 1 3 4 5 6 7 8 9 11 12 13 14 15 16 17 18 19 20 21 21 22 23 23 24 25 25 26 26 27 28 28 29 30 31 31 32
9 8 7 6 5 4 4 3 2 1 1 1 2 3 5 6 7 8 10 11 12 13 14 15 16 17 18 19 19 20 21 22 23 24 24 25 25 26 26 27 28 28 29 30 31 32 33 34 35
7 6 5 4 3 3 2 2 2 3 3 4 5 6 8 9 10 11 12 13 14 14 15 16 17 18 19 20 21 22 23 23 24 25 26 26 27 27 28 29 30 31 32 33 34 35 36 37 38
5 5 4 4 4 4 4 5 6 6 7 8 9 10 11 12 12 13 13 14 14 15 16 17 18 19 20 21 22 23 24 24 25 26 27 27 28 29 30 31 32 33 34 35 36 37 39 40 41
5 5 6 7 7 7 7 8 9 10 11 11 12 12 13 13 13 13 14 14 15 16 17 18 19 20 21 22 23 24 24 25 26 27 28 29 30 31 32 33 34 35 36 37 38 39 41 42 44
7 8 9 9 10 10 11 11 12 13 13 13 13 13 14 14 14 14 14 15 16 17 18 19 20 21 21 22 23 24 25 26 27 28 29 30 31 32 33 34 35 36 38 39 40 42 43 45 46
10 10 11 11 12 12 13 13 13 14 14 14 13 13 13 14 14 14 15 15 16 17 18 19 20 21 22 23 24 25 25 26 27 28 29 30 31 32 33 35 36 38 39 41 42 44 45 47 49
12 12 12 13 13 14 14 14 14 14 14 14 13 13 13 14 14 14 15 16 16 17 18 19 20 21 22 23 24 24 25 26 27 28 29 30 31 32 34 36 38 39 41 42 44 46 47 49 51
13 13 13 14 14 14 14 15 14 14 14 14 13 12 13 13 14 15 15 16 16 17 18 19 20 21 22 22 23 24 25 26 27 28 29 31 32 34 35 37 39 40 42 44 45 47 49 51 53
14 13 14 14 15 14 14 15 15 14 14 13 13 13 13 13 14 15 15 15 16 17 18 18 19 20 21 22 23 25 26 27 28 30 31 32 34 35 37 38 40 42 43 45 47 49 50 53 55
15 14 14 14 15 14 14 14 14 14 13 13 13 13 13 13 14 14 15 15 16 17 17 18 19 20 22 23 24 26 27 29 30 31 33 34 35 37 38 40 42 43 45 47 48 50 52 55 57
15 14 14 14 14 14 13 13 12 13 12 12 12 12 12 13 13 14 15 15 16 16 17 18 20 21 23 24 26 27 29 30 32 33 34 36 37 38 40 41 43 45 47 48 50 52 54 57 59
15 15 15 14 14 14 13 12 11 12 10 11 11 11 12 13 13 14 15 15 16 17 18 19 21 22 24 25 27 29 30 32 33 35 36 38 39 41 42 43 45 47 48 50 52 54 56 59 61
16 15 15 15 14 14 13 11 11 11 11 11 11 11 11 12 13 14 15 15 16 18 19 20 21 23 24 26 28 30 32 33 35 36 38 39 41 42 44 45 46 48 50 52 54 56 58 61 63
17 16 16 15 15 14 14 12 12 12 12 11 11 11 12 12 13 14 15 16 17 19 20 21 22 23 25 26 28 30 33 35 36 38 39 41 42 44 45 47 48 50 52 54 56 58 61 63 65
18 18 17 17 16 15 15 13 15 13 13 13 13 13 13 14 15 15 16 18 19 20 22 23 24 25 26 27 29 31 34 36 38 39 41 42 43 45 47 48 50 52 54 56 58 60 63 65 67
20 19 19 19 18 17 16 15 16 15 15 15 15 15 15 16 17 18 18 20 21 22 24 25 26 27 28 30 31 33 36 38 40 41 43 44 45 47 48 50 51 53 56 59 61 63 65 67 69
22 21 21 21 21 20 18 17 18 18 17 17 17 17 18 18 19 20 21 22 23 25 26 27 28 29 31 32 34 36 38 40 42 44 45 47 48 49 50 51 53 55 58 61 63 65 67 70 72
23 23 23 23 23 23 21 19 20 20 19 19 20 20 20 21 22 23 24 25 26 28 29 30 31 32 34 35 37 38 40 42 44 46 47 49 50 51 52 54 56 58 60 63 65 67 70 72 75
24 25 25 25 25 25 24 21 21 22 21 21 21 22 23 23 24 25 26 28 29 30 32 33 34 35 37 38 39 41 43 45 47 48 50 51 52 53 54 56 58 60 62 65 67 70 72 74 77
25 27 27 27 27 27 27 25 20 23 22 22 23 24 25 26 26 27 29 30 32 33 34 36 37 38 40 41 42 44 46 47 49 51 52 53 54 56 57 58 60 62 65 67 69 72 74 76 78
27 28 29 29 29 28 27 29 20 23 23 24 25 26 27 28 29 30 31 33 34 36 37 39 40 41 43 44 46 47 49 50 52 53 55 55 56 58 59 60 62 64 67 69 71 73 75 77 78
29 30 31 30 30 30 28 30 25 24 25 26 27 27 28 30 31 32 34 36 38 39 41 42 44 45 46 48 49 50 52 53 54 55 57 57 58 59 61 62 64 66 68 70 72 74 76 78 79
30 31 33 33 31 30 30 30 26 26 26 27 28 29 31 32 34 35 37 39 41 43 44 46 47 48 50 51 51 53 54 55 56 57 58 59 60 61 62 64 66 68 69 71 73 75 76 77 78
29 31 33 35 35 33 32 31 26 27 28 30 31 32 34 35 37 39 41 43 45 46 48 49 50 51 53 53 54 55 56 57 58 59 60 60 62 63 64 66 67 68 70 72 73 75 76 77 77
31 30 32 36 38 37 35 33 28 26 29 31 32 35 37 40 42 44 45 46 48 49 51 52 53 54 55 56 57 57 58 59 59 60 61 63 63 64 66 68 68 69 71 73 74 75 76 76 76
32 33 34 36 40 41 39 35 31 28 29 31 35 39 41 43 45 47 48 50 51 52 53 54 55 56 57 57 58 58 59 60 61 62 63 64 65 66 68 69 69 70 72 73 74 74 75 75 75
33 33 35 37 39 42 44 39 33 33 34 37 39 42 45 47 49 51 52 53 54 54 55 55 56 57 58 59 60 60 61 62 63 63 64 65 66 67 68 69 70 71 72 72 73 73 74 73 73
34 35 36 38 41 43 46 44 36 37 38 41 44 46 49 51 52 53 54 54 55 55 56 56 57 58 59 60 61 61 61 62 63 64 65 66 67 68 69 69 69 70 71 71 72 72 72 72 71
Wind_Direction
74 74 75 75 82 86 93 98 105 111 114 111 104 87 57 23 5 351 343 337 331 326 321 318 317 316 315 312 310 308 307 305 304 304 303 302 301 300 299 298 297 296 295 294 293 292 291 290 289
74 72 73 75 79 83 91 94 105 115 123 115 86 359 339 331 331 329 324 322 320 318 316 315 313 312 310 308 307 306 305 304 303 303 303 302 301 299 298 297 296 295 294 293 292 291 290 289 289
69 65 68 69 72 73 77 81 92 101 83 332 319 315 316 315 316 316 315 315 314 313 312 310 308 307 307 306 305 305 304 304 304 304 303 302 301 300 298 297 296 295 293 292 291 290 289 288 287
57 52 48 44 42 37 22 352 331 317 313 311 309 309 309 308 308 309 309 309 309 308 306 305 305 305 305 305 305 304 304 305 305 304 304 303 302 301 300 299 297 295 294 292 291 290 289 288 287
33 20 3 350 336 331 322 313 310 308 306 305 306 306 305 303 304 304 305 305 304 304 304 304 304 305 305 305 305 305 305 306 306 305 305 304 304 303 302 300 299 297 295 294 292 290 289 287 286
358 342 327 320 316 312 308 304 302 302 301 302 303 304 303 301 301 302 302 302 302 302 303 303 304 305 305 306 306 306 307 307 307 307 307 306 305 305 303 302 300 299 297 295 293 291 290 288 287
328 321 314 311 309 306 303 300 300 300 299 300 301 301 301 300 300 301 301 301 301 302 303 304 305 306 307 307 308 308 309 309 309 308 308 308 307 307 306 305 303 301 300 298 297 295 293 291 289
317 312 309 308 305 302 299 298 298 298 298 299 300 300 299 299 300 300 300 301 302 304 305 306 308 309 309 310 311 311 311 311 311 311 311 311 310 310 309 308 307 306 304 303 301 299 297 295 293
316 311 307 306 304 301 299 298 298 297 298 299 299 298 297 298 299 300 302 303 305 306 307 309 310 312 312 313 314 314 315 315 315 315 315 315 314 314 313 312 311 309 308 306 305 303 301 298 296
315 311 308 307 306 302 300 298 298 297 297 298 298 298 297 298 300 302 304 307 308 310 311 313 314 315 316 316 317 318 318 319 318 318 317 317 316 316 315 314 313 312 311 309 307 305 303 301 299
314 311 309 307 306 302 299 297 297 296 296 297 298 298 298 299 302 305 308 310 312 314 316 318 318 319 319 320 320 321 320 320 319 318 318 317 317 316 316 315 314 313 312 311 310 308 306 304 302
312 310 307 305 303 300 297 295 295 294 294 296 296 297 299 302 304 308 311 314 316 318 319 320 321 322 322 322 322 321 320 319 318 317 317 316 316 316 315 315 315 314 313 313 311 310 308 306 305
309 306 305 302 300 298 295 292 290 290 292 294 296 298 301 303 306 309 313 316 318 320 321 322 323 323 322 322 321 320 319 317 316 316 315 315 315 314 315 315 315 314 314 313 313 311 310 309 308
304 303 302 299 297 295 294 291 287 287 289 290 293 295 297 301 305 310 313 316 318 319 320 321 322 323 323 323 323 321 320 318 317 316 315 314 314 314 314 314 315 315 315 315 314 313 311 311 310
300 299 298 295 294 292 291 289 285 284 284 285 288 291 295 301 306 309 313 315 317 318 319 320 321 323 324 326 325 324 322 321 319 318 317 315 315 314 314 314 315 315 316 316 315 314 313 312 312
296 295 294 291 289 288 287 285 282 281 282 285 287 290 295 300 303 306 310 312 314 314 315 317 319 322 324 325 326 325 325 323 322 320 319 317 316 316 315 314 315 316 317 317 317 316 315 314 314
293 292 289 287 285 284 284 282 281 279 281 284 287 290 293 297 300 303 306 309 310 310 311 313 315 317 320 322 323 324 325 325 324 322 321 319 318 317 316 315 315 316 317 317 318 318 317 316 316
291 290 288 285 284 282 282 279 278 279 280 283 286 289 292 295 297 300 302 304 306 307 308 310 312 314 316 318 320 321 322 323 323 323 322 321 319 319 318 317 316 317 318 318 319 320 319 318 319
291 290 287 285 284 283 281 279 277 280 282 283 285 287 290 293 295 297 299 301 302 304 306 308 310 312 314 315 317 318 319 320 321 322 322 322 320 319 319 318 318 318 319 320 321 321 321 321 321
290 290 288 284 284 283 282 281 278 280 282 284 286 287 289 291 293 295 297 298 300 302 304 306 308 310 312 313 315 316 317 318 319 320 320 321 320 320 320 319 319 320 321 321 322 323 323 323 322
291 291 288 286 284 284 283 280 279 280 283 285 286 288 289 291 292 294 296 297 299 301 303 305 307 308 309 311 313 314 315 316 317 318 319 319 320 319 319 320 320 321 322 323 323 324 324 324 324
291 290 289 287 286 285 285 283 279 282 284 285 286 288 289 290 292 293 295 296 298 300 302 303 305 307 308 309 311 312 313 314 315 316 317 318 318 319 319 320 321 322 323 324 324 324 325 325 325
293 291 290 289 287 286 286 285 285 283 284 285 286 288 289 289 290 292 294 295 297 299 300 302 303 305 306 308 309 310 312 313 314 315 316 316 317 318 319 319 321 322 324 324 325 325 325 325 325
294 293 292 290 289 288 287 286 289 285 285 286 287 288 288 289 290 291 292 294 295 297 299 300 302 303 304 306 307 309 310 311 313 313 315 316 316 317 318 319 320 322 324 325 325 325 325 326 326
296 296 295 293 291 291 290 288 292 289 288 287 287 288 288 289 289 290 290 292 294 296 297 298 300 301 302 304 306 307 309 310 311 312 314 314 315 316 317 319 320 322 323 324 325 325 325 325 326
297 297 296 296 295 294 292 293 296 293 290 288 288 288 288 288 288 288 290 291 293 294 296 297 299 300 301 303 304 306 307 309 310 311 313 313 314 315 316 318 319 321 323 324 325 325 325 325 326
298 297 296 296 295 295 294 295 295 293 291 289 289 288 288 287 288 289 290 292 293 294 296 297 298 299 300 301 303 304 306 307 309 310 311 312 312 314 315 317 319 321 322 323 324 324 325 325 326
297 298 298 296 296 296 296 298 301 300 295 290 288 287 286 287 288 289 291 292 294 295 296 296 297 298 299 301 302 304 305 306 307 309 310 311 312 313 314 317 318 320 321 322 323 324 324 325 326
295 295 295 294 294 295 296 298 305 302 296 291 286 285 285 286 288 290 292 294 295 296 296 296 297 298 299 300 302 303 304 305 306 308 309 310 311 312 314 316 318 319 320 321 322 323 324 325 325
293 294 294 294 294 294 295 298 304 300 295 291 288 287 288 289 291 292 294 295 296 296 296 296 296 297 298 300 301 303 304 304 305 307 308 309 310 312 313 316 318 318 319 320 321 322 324 324 326
Height
5869 5869 5870 5870 5871 5871 5870 5870 5870 5869 5869 5870 5870 5869 5870 5870 5871 5872 5870 5867 5867 5867 5866 5865 5864 5864 5863 5862 5862 5861 5860 5859 5858 5858 5857 5856 5855 5854 5853 5852 5851 5851 5850 5849 5848 5848 5847 5847 5847
5870 5871 5872 5872 5872 5871 5872 5871 5871 5871 5871 5870 5870 5870 5869 5869 5869 5868 5867 5866 5865 5865 5864 5863 5862 5862 5861 5860 5859 5858 5857 5856 5855 5854 5853 5852 5851 5850 5849 5848 5847 5846 5845 5844 5843 5843 5842 5842 5841
5872 5873 5873 5873 5873 5873 5872 5872 5872 5871 5871 5871 5870 5870 5869 5869 5868 5867 5866 5865 5864 5863 5862 5861 5860 5859 5858 5857 5856 5855 5854 5852 5851 5850 5849 5847 5846 5845 5844 5843 5842 5841 5840 5839 5838 5837 5836 5835 5835
5874 5875 5875 5875 5873 5873 5872 5872 5872 5871 5871 5870 5870 5869 5868 5868 5867 5865 5864 5863 5862 5861 5860 5859 5857 5856 5855 5854 5852 5851 5850 5848 5847 5845 5844 5842 5841 5840 5838 5837 5836 5835 5834 5833 5832 5830 5829 5828 5827
5875 5875 5875 5874 5873 5873 5872 5872 5871 5870 5870 5869 5868 5867 5867 5865 5864 5863 5862 5861 5860 5858 5857 5856 5855 5853 5852 5850 5849 5847 5845 5844 5842 5840 5839 5837 5835 5834 5832 5831 5829 5828 5827 5825 5824 5823 5821 5820 5819
5876 5875 5875 5874 5873 5872 5871 5870 5870 5869 5868 5867 5866 5865 5864 5863 5862 5861 5859 5858 5857 5856 5855 5853 5852 5850 5848 5847 5845 5843 5841 5839 5837 5835 5833 5831 5829 5828 5826 5824 5822 5820 5819 5817 5815 5814 5812 5810 5809
5877 5875 5874 5873 5872 5871 5870 5868 5868 5867 5866 5865 5864 5863 5861 5860 5859 5858 5857 5856 5854 5853 5852 5850 5848 5847 5845 5843 5841 5839 5837 5834 5832 5830 5828 5825 5823 5821 5818 5816 5814 5812 5810 5808 5806 5804 5802 5799 5798
5875 5875 5872 5871 5870 5869 5868 5866 5865 5864 5863 5862 5861 5860 5859 5858 5856 5855 5854 5853 5851 5850 5848 5847 5845 5843 5841 5839 5837 5834 5832 5829 5827 5824 5822 5819 5817 5814 5811 5809 5806 5803 5800 5798 5795 5792 5790 5787 5785
5874 5873 5871 5869 5868 5867 5865 5864 5863 5862 5861 5859 5858 5858 5856 5855 5853 5852 5851 5850 5849 5847 5845 5843 5841 5839 5837 5835 5832 5830 5827 5824 5822 5819 5816 5813 5810 5807 5804 5801 5797 5794 5791 5788 5784 5781 5778 5775 5771
5872 5871 5869 5867 5866 5865 5863 5861 5860 5859 5858 5857 5856 5855 5853 5852 5850 5849 5848 5847 5846 5844 5842 5840 5838 5836 5833 5831 5828 5825 5823 5820 5817 5814 5811 5807 5804 5800 5797 5793 5789 5786 5782 5778 5774 5770 5766 5762 5758
5870 5868 5866 5864 5863 5862 5861 5859 5858 5857 5855 5854 5853 5852 5850 5849 5848 5846 5845 5844 5843 5841 5839 5837 5834 5832 5830 5827 5824 5821 5818 5815 5812 5808 5805 5801 5797 5794 5790 5785 5781 5777 5773 5768 5763 5759 5754 5750 5745
5868 5866 5864 5862 5861 5860 5859 5858 5856 5855 5854 5852 5851 5849 5848 5846 5845 5844 5842 5841 5840 5838 5836 5833 5831 5829 5826 5823 5820 5817 5814 5810 5807 5803 5799 5795 5791 5787 5782 5778 5773 5768 5763 5758 5753 5748 5742 5737 5731
5866 5864 5862 5860 5859 5858 5857 5855 5854 5853 5851 5850 5848 5847 5846 5844 5843 5841 5840 5838 5836 5834 5832 5830 5827 5825 5822 5819 5815 5812 5809 5805 5801 5797 5793 5788 5784 5779 5774 5769 5764 5759 5754 5748 5742 5736 5730 5724 5717
5864 5862 5860 5858 5856 5855 5854 5853 5852 5851 5850 5848 5846 5845 5844 5842 5840 5839 5837 5835 5833 5831 5829 5826 5824 5821 5818 5814 5811 5807 5803 5799 5795 5790 5786 5781 5776 5771 5766 5761 5755 5750 5744 5738 5731 5725 5718 5711 5704
5861 5860 5858 5856 5854 5853 5852 5852 5850 5848 5847 5846 5845 5843 5842 5840 5838 5836 5834 5832 5830 5828 5826 5823 5820 5817 5813 5810 5806 5802 5798 5793 5788 5784 5779 5773 5768 5763 5757 5752 5746 5740 5734 5727 5720 5713 5706 5698 5690
5858 5857 5855 5854 5852 5850 5851 5850 5848 5846 5844 5843 5842 5841 5839 5837 5836 5834 5831 5829 5827 5824 5822 5819 5816 5813 5809 5805 5801 5797 5792 5787 5782 5777 5771 5766 5760 5754 5748 5742 5736 5730 5723 5716 5709 5701 5693 5685 5676
5855 5854 5852 5851 5849 5847 5847 5847 5845 5843 5841 5840 5839 5837 5836 5834 5832 5830 5828 5826 5824 5821 5818 5815 5812 5808 5804 5800 5796 5791 5786 5781 5775 5770 5764 5758 5752 5746 5739 5733 5726 5719 5712 5704 5696 5688 5679 5670 5661
5852 5850 5849 5847 5845 5844 5843 5843 5841 5840 5839 5837 5836 5834 5832 5831 5829 5827 5825 5822 5820 5817 5814 5811 5807 5803 5799 5794 5790 5785 5780 5774 5768 5762 5756 5750 5743 5736 5730 5723 5715 5708 5700 5692 5683 5674 5664 5655 5645
5848 5847 5845 5843 5841 5840 5839 5839 5838 5836 5835 5834 5832 5831 5829 5827 5825 5823 5820 5818 5815 5812 5809 5805 5801 5797 5793 5788 5783 5778 5773 5767 5761 5754 5748 5741 5734 5727 5720 5712 5704 5696 5688 5679 5670 5660 5649 5638 5627
5844 5842 5841 5839 5837 5835 5835 5835 5834 5832 5831 5830 5828 5827 5825 5823 5821 5818 5816 5813 5810 5807 5803 5799 5795 5790 5785 5781 5776 5771 5765 5759 5753 5746 5739 5732 5725 5717 5709 5701 5693 5684 5675 5665 5655 5645 5634 5621 5608
5840 5838 5836 5834 5832 5831 5830 5832 5830 5828 5826 5825 5824 5822 5820 5818 5815 5813 5810 5807 5804 5800 5797 5792 5788 5783 5778 5773 5768 5763 5757 5750 5744 5737 5730 5722 5715 5707 5698 5690 5681 5671 5662 5651 5640 5629 5618 5605 5590
5836 5833 5831 5829 5827 5826 5825 5825 5827 5823 5822 5820 5818 5816 5814 5812 5809 5807 5804 5801 5797 5793 5789 5785 5780 5775 5770 5764 5759 5753 5748 5741 5735 5728 5720 5712 5704 5696 5687 5678 5669 5659 5648 5637 5626 5614 5601 5588 5574
5830 5828 5826 5824 5822 5821 5820 5818 5823 5819 5817 5815 5813 5811 5808 5806 5803 5800 5797 5794 5790 5786 5782 5777 5772 5767 5761 5756 5750 5744 5738 5731 5725 5717 5709 5701 5693 5685 5676 5666 5656 5646 5635 5624 5611 5599 5585 5571 5557
5825 5823 5820 5818 5817 5817 5815 5813 5816 5814 5812 5809 5807 5804 5801 5799 5796 5793 5789 5786 5781 5777 5773 5768 5763 5758 5752 5746 5740 5734 5728 5721 5714 5706 5698 5690 5682 5673 5664 5654 5644 5633 5622 5610 5597 5584 5570 5556 5541
5820 5818 5814 5812 5811 5811 5809 5808 5811 5808 5805 5802 5800 5797 5794 5791 5788 5784 5781 5777 5773 5768 5763 5758 5753 5748 5742 5736 5730 5724 5717 5710 5702 5694 5687 5678 5670 5661 5652 5642 5632 5620 5609 5597 5584 5570 5556 5541 5526
5815 5813 5809 5806 5804 5804 5803 5802 5806 5802 5798 5795 5792 5789 5786 5782 5778 5775 5771 5767 5763 5758 5753 5748 5742 5737 5731 5725 5719 5712 5705 5698 5691 5683 5675 5666 5657 5648 5639 5629 5619 5607 5596 5583 5570 5557 5542 5527 5512
5810 5808 5805 5800 5796 5795 5795 5796 5798 5795 5791 5788 5784 5780 5776 5772 5768 5764 5761 5757 5752 5747 5742 5737 5731 5726 5720 5713 5707 5701 5694 5686 5678 5670 5662 5654 5645 5636 5626 5616 5606 5594 5582 5570 5557 5544 5529 5514 5499
5804 5801 5799 5794 5789 5786 5786 5788 5789 5787 5784 5781 5776 5771 5766 5762 5758 5753 5750 5745 5741 5736 5730 5725 5719 5714 5708 5701 5695 5689 5681 5674 5666 5658 5650 5641 5632 5623 5613 5603 5592 5581 5569 5557 5545 5531 5517 5502 5487
5799 5796 5792 5787 5784 5780 5775 5781 5783 5778 5774 5769 5765 5760 5755 5751 5747 5743 5739 5734 5729 5723 5718 5713 5707 5701 5695 5689 5682 5676 5669 5661 5653 5645 5637 5628 5619 5610 5600 5590 5579 5568 5557 5544 5532 5519 5505 5490 5475
5791 5789 5785 5782 5778 5773 5767 5771 5774 5768 5762 5757 5753 5749 5744 5740 5736 5732 5727 5722 5717 5711 5706 5700 5694 5688 5682 5676 5669 5663 5655 5647 5640 5632 5623 5615 5606 5596 5587 5577 5566 5555 5544 5532 5520 5507 5493 5479 5465